[[{"header":{"parameterUnit":"m.s-1","parameterCategory":1,"la1":30.2991,"la2":30.254,"lo1":-89.0895,"lo2":-89.0444,"dy":0.0017,"dx":0.0017,"nx":28,"ny":28,"refTime":"2023-04-06T21:00:00:Z","depth":0,"parameterNumber":2,"parameterNumberName":"U-component_of_WINDS"},"data":[0,0,0,0,0,0,0,0,0,0,0,0,0,0,0,0,0,0,0,0,0,0,0,0,0,0,0,0,0,0,0,0,0,0,0,0,0,0,0,0,0,0,0,0,0,0,0,0,0,0,0,0,0,0,0,0,0,0,0.478,0.4779,0,0.4751,0.475,0.475,0.469,0.4689,0.4687,0.4686,0.4656,0.4657,0.4657,0,0,0,0,0,0,0,0,0,0,0,0,0,0.4784,0.4785,0.478,0.4779,0.4779,0.4751,0.475,0.475,0.469,0.4688,0.4687,0.4686,0.4656,0.4657,0.4657,0,0,0,0,0,0,0,0,0,0,0,0,0,0.4772,0.4785,0.478,0.4746,0.4742,0.4751,0.475,0.475,0.469,0.4688,0.4687,0.4685,0.4656,0.4657,0.4657,0.4696,0,0,0.4658,0.4659,0,0,0,0,0,0,0,0,0.4772,0.4771,0.4751,0.4748,0.4744,0.4722,0.4741,0.4732,0.4691,0.471,0.4686,0.4684,0.468,0.4678,0.4676,0.4695,0.4693,0.4659,0.4659,0.4659,0.4659,0,0,0,0,0,0,0,0.4773,0.4772,0.4768,0.4751,0.4747,0.4732,0.4728,0.4739,0.4705,0.4708,0.4704,0.4701,0.4677,0.4676,0.4675,0.4693,0.4658,0.4659,0.4659,0.4659,0.4743,0.4745,0,0,0,0,0,0,0.4779,0.4774,0.4769,0.4767,0.4754,0.4734,0.4729,0.4731,0.4705,0.4699,0.4703,0.4698,0.4676,0.4675,0.4674,0.4719,0.4659,0.4659,0.466,0.4741,0.4743,0.4745,0,0,0,0,0,0,0.4779,0.4779,0.477,0.4769,0.4767,0.4735,0.4738,0.4731,0.473,0.4701,0.4695,0.4708,0.4675,0.4673,0.4691,0.4717,0.466,0.466,0.4739,0.4742,0.4744,0.4808,0,0,0,0,0,0,0.478,0.478,0.4794,0.477,0.4767,0.4788,0.4739,0.4732,0.4731,0.4725,0.4704,0.4698,0.4673,0.4691,0.4692,0.4716,0.4661,0.4736,0.474,0.4744,0.4803,0.4813,0.482,0,0,0,0,0,0.478,0.4813,0.4795,0.4795,0.4784,0.4789,0.4788,0.4758,0.4733,0.4748,0.4729,0.4699,0.4714,0.4693,0.4694,0.4719,0.4735,0.4739,0.4743,0.4799,0.4811,0.482,0,0,0,0,0,0,0.484,0.4809,0.4789,0.4815,0.4805,0.4779,0.4796,0.4771,0.4768,0.4763,0.4726,0.4722,0.4745,0.4734,0.4711,0.4756,0.472,0.4724,0.4762,0.4773,0.4781,0.4783,0.4661,0,0,0,0,0,0.4856,0.4863,0.4835,0.4861,0.4857,0.4828,0.4829,0.4807,0.4796,0.4791,0.4774,0.4764,0.4767,0.4769,0.477,0.4802,0.4797,0.4819,0.4828,0.4835,0.4839,0.4856,0.4866,0.476,0.476,0.476,0,0,0.489,0.4874,0.488,0.4872,0.4863,0.4871,0.4825,0.4835,0.4841,0.4793,0.4809,0.4796,0.4783,0.4808,0.4819,0.48,0.4868,0.4841,0.4847,0.4847,0.4862,0.4872,0.4881,0.4763,0.4762,0.4762,0,0,0.4955,0.4943,0.4963,0.4955,0.4941,0.4921,0.4926,0.4905,0.4894,0.491,0.4875,0.4881,0.4886,0.4878,0.4875,0.494,0.4912,0.4941,0.4985,0.5002,0.501,0.5018,0.5041,0.5049,0.4945,0.4945,0.4946,0,0.4998,0.5008,0.4977,0.4989,0.4988,0.4946,0.4966,0.4959,0.4946,0.4946,0.4925,0.4931,0.492,0.4943,0.4959,0.4958,0.4962,0.4943,0.5012,0.5019,0.5025,0.5047,0.5055,0.4949,0.4949,0.4948,0.4948,0,0.5062,0.507,0.5088,0.5077,0.5078,0.5094,0.5066,0.507,0.5049,0.5032,0.5049,0.5033,0.5031,0.5035,0.5014,0.5056,0.5044,0.5018,0.4981,0.5039,0.5059,0.5067,0.4954,0.4953,0.4952,0.4951,0,0,0.5162,0.5135,0.5142,0.5137,0.5119,0.5125,0.514,0.5138,0.5142,0.5136,0.5148,0.5154,0.513,0.5126,0.5104,0.5119,0.5172,0.5091,0.5091,0.5107,0.5218,0.5237,0.5247,0.5154,0.5156,0.5157,0.5219,0,0.5223,0.5247,0.522,0.525,0.5257,0.5219,0.5232,0.5223,0.5208,0.5213,0.5196,0.5201,0.5169,0.5167,0.518,0.5163,0.5194,0.5158,0.5165,0.5166,0.5169,0.5257,0.5277,0.5336,0.5226,0.5228,0.5228,0,0.5296,0.5293,0.5324,0.5306,0.5308,0.532,0.5317,0.5321,0.5311,0.5299,0.5296,0.527,0.5284,0.5249,0.5269,0.5245,0.5247,0.5239,0.5241,0.5239,0.52,0.5258,0.5355,0.5363,0.524,0.5239,0.5238,0,0.5366,0.537,0.5389,0.5386,0.5365,0.5375,0.5367,0.5354,0.5355,0.5352,0.5352,0.5351,0.5351,0.5351,0.5325,0.5302,0.5348,0.531,0.5339,0.534,0.5349,0.5349,0.5447,0.5352,0.5352,0.5351,0.5351,0,0.5436,0.5456,0.542,0.5432,0.5454,0.5424,0.5446,0.5434,0.5424,0.5433,0.54,0.5409,0.5376,0.5382,0.5362,0.5382,0.5381,0.5372,0.5367,0.5375,0.5376,0.5375,0.537,0.5354,0.5353,0.5353,0.5352,0,0.5517,0.5494,0.5512,0.5491,0.5487,0.5504,0.5486,0.5496,0.548,0.5492,0.5493,0.5468,0.5473,0.5448,0.5449,0.5436,0.5466,0.5453,0.5469,0.5465,0.5495,0.5492,0.5595,0.5607,0.5505,0.5506,0.5506,0,0.5563,0.5577,0.5559,0.5563,0.5556,0.5563,0.5564,0.5535,0.5537,0.5528,0.5539,0.5542,0.5543,0.5554,0.5535,0.5536,0.5523,0.5559,0.5523,0.5531,0.5524,0.5523,0.5524,0.5566,0.5568,0.5569,0.557,0,0.5646,0.5634,0.5637,0.5636,0.5638,0.5636,0.5632,0.5637,0.5606,0.5611,0.5616,0.5617,0.5619,0.5622,0.562,0.5611,0.5586,0.5582,0.5588,0.5596,0.5604,0.56,0.5489,0.5579,0.5578,0.5577,0.5577,0.5576,0.571,0.5722,0.5711,0.5716,0.571,0.5707,0.5716,0.5701,0.5705,0.5704,0.5688,0.5697,0.5687,0.5681,0.5676,0.5683,0.5666,0.5675,0.5677,0.568,0.5685,0.5604,0.5682,0.5682,0.5682,0.5681,0.5681,0,0.5792,0.5784,0.5788,0.5783,0.5787,0.5764,0.5758,0.5763,0.5771,0.5765,0.5767,0.5773,0.5777,0.576,0.5761,0.577,0.5759,0.5772,0.577,0.5769,0.57,0.5694,0.5781,0.5781,0.5781,0.5781,0.5781,0.5781,0.5835,0.5854,0.5841,0.5857,0.5848,0.5857,0.5856,0.5854,0.5848,0.5858,0.5861,0.585,0.5839,0.584,0.5843,0.5837,0.5839,0.5856,0.5847,0.5783,0.5774,0.5764,0.5758,0.5857,0.5857,0.5915,0.5915,0.5916]},{"header":{"parameterUnit":"m.s-1","parameterCategory":1,"la1":30.2991,"la2":30.254,"lo1":-89.0895,"lo2":-89.0444,"dy":0.0017,"dx":0.0017,"nx":28,"ny":28,"refTime":"2023-04-06T21:00:00:Z","depth":0,"parameterNumber":3,"parameterNumberName":"V-component_of_WINDS"},"data":[0,0,0,0,0,0,0,0,0,0,0,0,0,0,0,0,0,0,0,0,0,0,0,0,0,0,0,0,0,0,0,0,0,0,0,0,0,0,0,0,0,0,0,0,0,0,0,0,0,0,0,0,0,0,0,0,0,0,1.5383,1.5386,0,1.563,1.5633,1.5636,1.5716,1.5715,1.5713,1.5712,1.5973,1.598,1.5988,0,0,0,0,0,0,0,0,0,0,0,0,0,1.4982,1.4989,1.5383,1.5386,1.5389,1.563,1.5633,1.5637,1.5716,1.5714,1.5713,1.5712,1.597,1.598,1.5989,0,0,0,0,0,0,0,0,0,0,0,0,0,1.5186,1.4991,1.5382,1.5457,1.5466,1.5629,1.5634,1.5638,1.5716,1.5714,1.5713,1.5711,1.5967,1.5979,1.599,1.6099,0,0,1.6027,1.6032,0,0,0,0,0,0,0,0,1.5174,1.52,1.5443,1.5452,1.5463,1.564,1.5588,1.5793,1.5717,1.5622,1.5712,1.571,1.5864,1.5884,1.5935,1.6111,1.6122,1.6028,1.6035,1.6041,1.6044,0,0,0,0,0,0,0,1.516,1.519,1.5481,1.5446,1.5459,1.548,1.5507,1.5627,1.575,1.563,1.5636,1.5664,1.5869,1.5923,1.5941,1.6126,1.6028,1.6038,1.6046,1.6051,1.6402,1.6404,0,0,0,0,0,0,1.5132,1.5178,1.5473,1.5488,1.5311,1.5488,1.5519,1.5585,1.5748,1.5771,1.5665,1.5667,1.5903,1.5927,1.5951,1.6088,1.604,1.6052,1.6059,1.6399,1.6402,1.6404,0,0,0,0,0,0,1.5123,1.5158,1.5463,1.5335,1.5375,1.5497,1.5571,1.5591,1.5645,1.5775,1.5798,1.5697,1.5903,1.5934,1.606,1.6098,1.6057,1.6068,1.6397,1.64,1.6403,1.6362,0,0,0,0,0,0,1.5112,1.5154,1.5196,1.5335,1.5382,1.5567,1.5574,1.5597,1.5665,1.5669,1.5811,1.5833,1.5904,1.6042,1.6072,1.6114,1.6077,1.6394,1.6398,1.6402,1.6361,1.6363,1.6366,0,0,0,0,0,1.5097,1.5176,1.5198,1.5233,1.5436,1.5569,1.5596,1.5674,1.5667,1.5711,1.5794,1.5829,1.6088,1.6054,1.6089,1.6134,1.6392,1.6397,1.6402,1.6359,1.6363,1.6365,0,0,0,0,0,0,1.5041,1.5196,1.5221,1.5348,1.5444,1.5582,1.564,1.5675,1.5777,1.5778,1.5871,1.5903,1.6022,1.6091,1.6051,1.6247,1.6242,1.6254,1.6198,1.6202,1.6204,1.6186,1.6087,0,0,0,0,0,1.5043,1.5136,1.5267,1.5366,1.5413,1.5517,1.5578,1.5629,1.5734,1.5776,1.5869,1.5971,1.6075,1.6142,1.6246,1.637,1.6402,1.6418,1.6421,1.6422,1.6432,1.6502,1.651,1.642,1.642,1.642,0,0,1.5049,1.5145,1.5199,1.5357,1.5438,1.5534,1.5552,1.5653,1.5725,1.5793,1.5917,1.5988,1.6108,1.6233,1.6293,1.6294,1.6463,1.6428,1.6428,1.6438,1.6507,1.6516,1.6523,1.6423,1.6423,1.6422,0,0,1.5109,1.5191,1.5281,1.5361,1.5482,1.555,1.5571,1.5704,1.5752,1.5878,1.593,1.6017,1.6196,1.6278,1.6344,1.643,1.6467,1.6462,1.6476,1.6543,1.655,1.6557,1.6587,1.6597,1.6471,1.647,1.647,0,1.5102,1.5247,1.5324,1.5422,1.549,1.5551,1.5644,1.5718,1.5867,1.5913,1.5912,1.6134,1.622,1.6364,1.6385,1.6436,1.6464,1.6447,1.6542,1.655,1.6557,1.6588,1.6599,1.6469,1.6469,1.6469,1.6469,0,1.5232,1.5331,1.539,1.5529,1.5604,1.5698,1.5791,1.5857,1.59,1.5969,1.6095,1.6199,1.6323,1.6361,1.6406,1.6512,1.6509,1.6523,1.6521,1.6563,1.6593,1.6606,1.6467,1.6468,1.6468,1.6468,0,0,1.5267,1.5444,1.5465,1.5528,1.5664,1.5743,1.584,1.5959,1.6014,1.6114,1.6198,1.6345,1.6358,1.6432,1.6486,1.6545,1.6606,1.6553,1.6557,1.6559,1.6729,1.6718,1.673,1.663,1.6632,1.6634,1.6719,0,1.5344,1.5518,1.5589,1.5731,1.5823,1.5881,1.5966,1.6058,1.6124,1.6213,1.6287,1.6389,1.6399,1.6444,1.6504,1.6586,1.6642,1.658,1.6711,1.6714,1.6679,1.6746,1.6735,1.681,1.6731,1.6733,1.6735,0,1.5459,1.5556,1.5706,1.5828,1.587,1.5944,1.6058,1.6142,1.6248,1.6292,1.6372,1.6422,1.6527,1.6515,1.666,1.6617,1.6674,1.6722,1.6727,1.6743,1.6728,1.6765,1.6836,1.6847,1.6754,1.6753,1.6751,0,1.5469,1.5638,1.5749,1.5801,1.5947,1.5997,1.6061,1.6165,1.6231,1.6331,1.6375,1.6486,1.6547,1.6632,1.6711,1.6695,1.6849,1.6844,1.689,1.6888,1.6921,1.6918,1.7003,1.6956,1.6956,1.6955,1.6955,0,1.5549,1.5639,1.5755,1.5823,1.5925,1.6005,1.6104,1.6171,1.6263,1.6346,1.6404,1.6481,1.658,1.667,1.6732,1.6843,1.687,1.6909,1.6925,1.6905,1.69,1.6945,1.6942,1.6958,1.6958,1.6957,1.6957,0,1.5579,1.566,1.5785,1.5911,1.5945,1.6014,1.6123,1.6192,1.6258,1.6363,1.6392,1.6498,1.6606,1.6692,1.6835,1.6877,1.6994,1.7011,1.6957,1.6965,1.7006,1.7001,1.7124,1.7144,1.7081,1.7081,1.7082,0,1.5625,1.5695,1.5827,1.5885,1.5947,1.6041,1.6108,1.6189,1.6256,1.6381,1.6435,1.6546,1.664,1.6811,1.6902,1.701,1.7031,1.7067,1.7049,1.7025,1.7033,1.7028,1.7035,1.7069,1.707,1.707,1.707,0,1.5699,1.5734,1.5827,1.5934,1.6011,1.6099,1.6189,1.6234,1.6331,1.6404,1.6514,1.6586,1.6729,1.684,1.6957,1.7025,1.7064,1.7074,1.7091,1.7072,1.7037,1.7057,1.6963,1.7072,1.7072,1.7072,1.7072,1.7071,1.5739,1.5803,1.5905,1.6006,1.6081,1.6163,1.6233,1.6306,1.6399,1.652,1.6563,1.6675,1.6779,1.694,1.7007,1.7097,1.7101,1.7124,1.7131,1.7136,1.7133,1.7021,1.7119,1.7119,1.7119,1.7119,1.712,0,1.5815,1.5883,1.5975,1.6097,1.6176,1.6202,1.6302,1.6367,1.6465,1.6557,1.6646,1.6772,1.6878,1.6976,1.7087,1.7141,1.7161,1.7167,1.7165,1.718,1.7124,1.7099,1.7148,1.7148,1.7148,1.7148,1.7148,1.7148,1.5865,1.5973,1.6021,1.6167,1.6235,1.6344,1.6399,1.6474,1.6548,1.6684,1.6772,1.6833,1.6928,1.7045,1.7144,1.717,1.7209,1.721,1.7241,1.7188,1.7184,1.718,1.7157,1.7218,1.7218,1.729,1.729,1.7291]}]]